Location: Jalan Sepang
(2.8072°N, 101.8021°E)
Time: 05:59:50
(UTC+00:00)

Cosmos 1656 Rocket - Pass Details

Date: 15 May 2026
Orbit: 793 x 844 km, 71.1° (Epoch: 7 June)

Event Time Altitude Azimuth Distance (km) Brightness Sun altitude
Exits shadow 22:17:16 - 206° (SSW) 2,841 6.0 -11.3°
Reaches altitude 10° 22:18:32 10° 209° (SSW) 2,363 5.6 -11.0°
Maximum altitude 22:23:47 54° 285° (WNW) 960 3.7 -9.8°
Drops below altitude 10° 22:28:59 10° 2° (N) 2,348 6.3 -8.6°
Sets 22:31:26 0° 7° (N) 3,277 7.2 -8.0°
